Location: *
(35.8942°N, 23.3025°E)
Time: 01:16:17
(UTC+00:00)

ISS - Visible Passes

Search period start: 27 November 2022 00:00
Search period end: 07 December 2022 00:00
Orbit: 411 x 421 km, 51.6° (Epoch: 26 November)

Date Brightness Start Highest point End Pass type
(mag) Time Alt. Az. Time Alt. Az. Time Alt. Az.
02 Dec -1.4 16:08:15 10° NNE 16:08:35 10° NNE 16:08:54 10° NNE visible
03 Dec -1.7 16:54:09 10° NNW 16:55:24 18° NNW 16:55:24 18° NNW visible
04 Dec -2.2 16:05:44 10° NNW 16:08:12 19° NNE 16:09:08 17° NE visible
04 Dec -0.5 17:41:53 10° WNW 17:42:04 11° WNW 17:42:04 11° WNW visible
05 Dec -3.8 16:53:01 10° NW 16:56:03 74° NW 16:56:03 74° NW visible
06 Dec -3.5 16:04:17 10° NW 16:07:30 45° NE 16:10:24 12° ESE visible
06 Dec -0.6 17:42:02 10° W 17:43:23 14° WSW 17:43:23 14° WSW visible
